Weather History for KMVN - May, 2014

Change the Weather History Date:

Friday, May 16, 2014

  Actual Average Record
Temperature  
Mean Temperature 48 °F -  
Max Temperature 53 °F 73 °F 91 °F (2001)
Min Temperature 42 °F 53 °F 33 °F (1997)
Degree Days  
Heating Degree Days 18    
Moisture  
Dew Point 34 °F    
Average Humidity 62    
Maximum Humidity 71    
Minimum Humidity 41    
Precipitation  
Precipitation 0.02 in - - ()
Sea Level Pressure  
Sea Level Pressure 30.07 in    
Wind  
Wind Speed 4 mph (West)    
Max Wind Speed 14 mph    
Max Gust Speed 21 mph    
Visibility 9 miles    
Events      
Averages and records for this station are not official NWS values.
T = Trace of Precipitation, MM = Missing Value Source: NWS Daily Summary

Daily Weather History Graph

Daily Weather History Graph

Search for Another Location

Airport or City:

Trip Planner

Search our weather history database for the weather conditions in past years. The results will help you decide how hot, cold, wet, or windy it might be!

Date:

Astronomy

May. 16, 2014 Rise Set
Actual Time 5:43 AM CDT 8:00 PM CDT
Civil Twilight 5:13 AM CDT 8:30 PM CDT
Nautical Twilight 4:37 AM CDT 9:07 PM CDT
Astronomical Twilight 3:57 AM CDT 9:47 PM CDT
Moon 10:07 PM CDT (5/16) 7:25 AM CDT (5/16)
Length of Visible Light 15h 16m
Length of Day
14h 17m
Waning Gibbous, 95% of the Moon is Illuminated
May 16
Waning Gibbous
May 21
Last Quarter
May 28
New
Jun 5
First Quarter
Jun 12
Full

Hourly Weather History & Observations

Time (CDT) Temp. Windchill Dew Point Humidity Pressure Visibility Wind Dir Wind Speed Gust Speed Precip Events Conditions
12:15 AM 46.4 °F - 37.4 °F 71% 30.06 in 3.0 mi Calm Calm - N/A   Scattered Clouds
12:35 AM 46.4 °F - 37.4 °F 71% 30.06 in 1.8 mi Calm Calm - N/A   Mostly Cloudy
12:55 AM 46.4 °F 44.3 °F 37.4 °F 71% 30.06 in 0.8 mi SSW 4.6 mph - N/A   Overcast
1:15 AM 46.4 °F 45.2 °F 37.4 °F 71% 30.05 in 2.5 mi SW 3.5 mph - N/A   Partly Cloudy
1:35 AM 44.6 °F - 35.6 °F 71% 30.05 in 1.5 mi Calm Calm - N/A   Scattered Clouds
1:55 AM 46.4 °F 45.2 °F 37.4 °F 71% 30.04 in 2.0 mi West 3.5 mph - N/A   Scattered Clouds
2:15 AM 46.4 °F 44.3 °F 37.4 °F 71% 30.03 in 10.0 mi West 4.6 mph - N/A   Clear
2:35 AM 46.4 °F 45.2 °F 37.4 °F 71% 30.02 in 10.0 mi WSW 3.5 mph - N/A   Clear
2:55 AM 46.4 °F 45.2 °F 37.4 °F 71% 30.02 in 10.0 mi West 3.5 mph - N/A   Clear
3:15 AM 44.6 °F - 35.6 °F 71% 30.02 in 10.0 mi Calm Calm - N/A   Clear
3:35 AM 44.6 °F - 33.8 °F 66% 30.02 in 10.0 mi Calm Calm - N/A   Clear
3:55 AM 42.8 °F - 33.8 °F 70% 30.02 in 10.0 mi Calm Calm - N/A   Clear
4:15 AM 42.8 °F - 33.8 °F 70% - 10.0 mi North - - N/A   Clear
4:35 AM 42.8 °F 41.1 °F 33.8 °F 70% 30.03 in 10.0 mi WSW 3.5 mph - N/A   Clear
4:55 AM 42.8 °F - 33.8 °F 70% 30.03 in 10.0 mi Calm Calm - N/A   Clear
5:15 AM 42.8 °F 40.1 °F 33.8 °F 70% 30.04 in 10.0 mi WSW 4.6 mph - N/A   Clear
5:35 AM 42.8 °F 41.1 °F 30.2 °F 61% 30.04 in 10.0 mi WSW 3.5 mph - N/A   Clear
5:55 AM 42.8 °F 41.1 °F 30.2 °F 61% 30.04 in 10.0 mi WSW 3.5 mph - N/A   Clear
6:15 AM 42.8 °F 41.1 °F 30.2 °F 61% 30.05 in 10.0 mi WSW 3.5 mph - N/A   Clear
6:35 AM 42.8 °F 41.1 °F 32.0 °F 66% 30.05 in 10.0 mi WSW 3.5 mph - N/A   Clear
6:55 AM 42.8 °F 41.1 °F 33.8 °F 70% 30.05 in 10.0 mi WSW 3.5 mph - N/A   Clear
7:15 AM 44.6 °F 40.7 °F 33.8 °F 66% 30.06 in 10.0 mi WSW 6.9 mph - N/A   Clear
7:35 AM 44.6 °F 40.7 °F 33.8 °F 66% 30.06 in 10.0 mi West 6.9 mph - N/A   Clear
7:55 AM 44.6 °F 40.7 °F 33.8 °F 66% 30.06 in 10.0 mi West 6.9 mph - N/A   Partly Cloudy
8:15 AM 44.6 °F 39.7 °F 33.8 °F 66% 30.07 in 10.0 mi West 9.2 mph - N/A   Mostly Cloudy
8:35 AM 46.4 °F 42.4 °F 33.8 °F 62% 30.07 in 10.0 mi West 8.1 mph - N/A   Mostly Cloudy
8:55 AM 46.4 °F 42.4 °F 33.8 °F 62% 30.07 in 10.0 mi West 8.1 mph - N/A   Overcast
9:15 AM 46.4 °F 43.5 °F 33.8 °F 62% 30.07 in 10.0 mi West 5.8 mph - N/A   Overcast
9:35 AM 48.2 °F - 33.8 °F 58% 30.07 in 10.0 mi West 10.4 mph 16.1 mph N/A   Overcast
9:55 AM 48.2 °F - 33.8 °F 58% 30.07 in 10.0 mi WSW 6.9 mph - N/A   Overcast
10:15 AM 50.0 °F - 33.8 °F 54% 30.07 in 10.0 mi West 6.9 mph - N/A   Overcast
10:35 AM 51.8 °F - 33.8 °F 50% 30.07 in 9.0 mi West 11.5 mph 17.3 mph N/A   Overcast
10:55 AM 51.8 °F - 33.8 °F 50% 30.07 in 10.0 mi WSW 8.1 mph 16.1 mph N/A   Overcast
11:15 AM 50.0 °F - 33.8 °F 54% 30.07 in 10.0 mi West 9.2 mph 17.3 mph N/A   Mostly Cloudy
11:35 AM 51.8 °F - 33.8 °F 50% 30.07 in 10.0 mi West 8.1 mph - N/A   Overcast
11:55 AM 50.0 °F - 32.0 °F 50% 30.07 in 10.0 mi WNW 6.9 mph - N/A   Overcast
12:15 PM 50.0 °F - 33.8 °F 54% 30.08 in 10.0 mi West 5.8 mph - N/A   Overcast
12:35 PM 51.8 °F - 33.8 °F 50% 30.07 in 10.0 mi West 9.2 mph - N/A   Mostly Cloudy
12:55 PM - - - N/A% 30.07 in 10.0 mi West 6.9 mph - N/A   Overcast
1:15 PM - - - N/A% 30.06 in 10.0 mi West 10.4 mph - N/A   Overcast
1:35 PM - - - N/A% 30.06 in 10.0 mi WSW 13.8 mph 18.4 mph N/A   Overcast
1:55 PM - - - N/A% 30.06 in 10.0 mi West 9.2 mph 19.6 mph N/A   Overcast
2:15 PM 53.6 °F - 30.2 °F 41% 30.06 in 10.0 mi WSW 13.8 mph 20.7 mph N/A   Overcast
2:35 PM 53.6 °F - 32.0 °F 44% 30.07 in 10.0 mi West 4.6 mph - N/A   Overcast
2:55 PM 53.6 °F - 32.0 °F 44% 30.07 in 10.0 mi West 8.1 mph - N/A   Overcast
3:15 PM - - - N/A% 30.07 in 10.0 mi West 11.5 mph 17.3 mph N/A   Overcast
3:35 PM - - - N/A% 30.07 in 10.0 mi West 8.1 mph 16.1 mph N/A   Overcast
3:55 PM - - - N/A% 30.06 in 10.0 mi WSW 8.1 mph - N/A   Overcast
4:15 PM - - - N/A% 30.06 in 10.0 mi West 6.9 mph - N/A   Overcast
4:35 PM - - - N/A% 30.07 in 10.0 mi West 9.2 mph 16.1 mph N/A   Overcast
4:55 PM - - - N/A% 30.07 in 10.0 mi West 5.8 mph - N/A   Overcast
5:15 PM - - - N/A% 30.07 in 10.0 mi West 5.8 mph - N/A   Overcast
5:35 PM - - - N/A% 30.07 in 10.0 mi West 8.1 mph - N/A   Overcast
5:55 PM - - - N/A% 30.07 in 10.0 mi West 5.8 mph - N/A   Overcast
6:15 PM - - - N/A% 30.07 in 10.0 mi West 4.6 mph - N/A   Overcast
6:35 PM - - - N/A% 30.08 in 10.0 mi WNW 5.8 mph - N/A   Mostly Cloudy
6:55 PM - - - N/A% 30.09 in 10.0 mi Calm Calm - N/A   Mostly Cloudy
7:15 PM 53.6 °F - 32.0 °F 44% 30.10 in 10.0 mi Calm Calm - N/A   Mostly Cloudy
7:35 PM 51.8 °F - 32.0 °F 47% 30.10 in 10.0 mi Calm Calm - N/A   Overcast
7:55 PM 51.8 °F - 33.8 °F 50% 30.11 in 10.0 mi North 5.8 mph - N/A   Partly Cloudy
8:15 PM 48.2 °F - 33.8 °F 58% 30.11 in 10.0 mi NNE 4.6 mph - N/A   Clear
8:35 PM 48.2 °F - 32.0 °F 54% 30.11 in 10.0 mi North 3.5 mph - N/A   Clear
8:55 PM 46.4 °F - 33.8 °F 62% 30.12 in 10.0 mi Calm Calm - N/A   Clear
9:15 PM 46.4 °F - 33.8 °F 62% 30.13 in 10.0 mi Calm Calm - N/A   Clear
9:35 PM 44.6 °F - 33.8 °F 66% 30.13 in 10.0 mi Calm Calm - N/A   Clear
9:55 PM 44.6 °F - 33.8 °F 66% 30.13 in 10.0 mi Calm Calm - N/A   Clear
10:15 PM 44.6 °F 43.1 °F 33.8 °F 66% 30.14 in 10.0 mi NNE 3.5 mph - N/A   Clear
10:35 PM 44.6 °F - 33.8 °F 66% 30.13 in 10.0 mi Calm Calm - N/A   Clear
10:55 PM 44.6 °F - 33.8 °F 66% 30.14 in 10.0 mi Calm Calm - N/A   Clear
11:15 PM 44.6 °F 43.1 °F 33.8 °F 66% 30.14 in 10.0 mi NNE 3.5 mph - N/A   Clear
11:35 PM 44.6 °F - 32.0 °F 61% 30.14 in 10.0 mi Calm Calm - N/A   Clear
11:55 PM 44.6 °F - 33.8 °F 66% 30.14 in 10.0 mi Calm Calm - N/A   Clear